Showing default

KINEIS-2E, 62931

Orbit data source: Space-Track

KINEIS-2E, 62931 is a French payload satellite in SSO that was launched on Sat, 08 Feb 2025 UTC via an ELECTRON launch vehicle from the Rocket Lab Launch Complex (RLLC). Payload-class satellites include a variety of spacecraft equipped with specific instruments for various scientific and technological missions. These include communications satellites like Starlink; space stations such as the ISS; scientific satellites like the Hubble; Earth observation satellites from companies like Planet Labs, Umbra, and HawkEye 360; GPS; miniature CubeSats for education and research; and military/defense satellites.

Loading next visibility...
Identifier
62931, 2025-028D
Orbit
SSO
Last TLE update
11 hours ago
Origin
Manufacturer
KINEIS
Mission
Operational Commercial Communications
Bus & Motor
CUBESAT 16U, Unknown motor
Mass
28 kg wet, 28 kg dry
Launch date (UTC)
2025-02-08 (5 months ago)
Launch vehicle
ELECTRON
Launch site
Rocket Lab Launch Complex (RLLC)
Object type
Payload
Rocket body
Debris
Shape & HBR
Box + 2 Pan + 1 Ant, 1.6 m
Radar Cross Section
0.229 m², Medium (>0.1 m² and < 1m²)

Expand to show TLE details & history

TLE from 11 hours ago
0 KINEIS-2E
1 62931U 25028D   25183.70779917  .00001214  00000-0  18516-3 0  9996
2 62931  97.9429 237.1293 0001486 117.7983 242.3377 14.75625595 21218
Epoch: 2025-07-02T16:59Z
TLE epoch observation values (Epoch: 2025-07-02T16:59:13.848Z)
Latitude
-0.00003°
Longitude
61.33657°
Altitude
646.665 km
Speed
7.534 km/s
True Right ascension
15h 48m 31s
True Declination
0° 00' 00"
Sunlit
Object was in full shadow at epoch
Visualization orbit readout
Latitude
-39.95474°
Longitude
-124.89923°
Altitude
658.711 km
Speed
7.527 km/s
Apparent Right ascension
03h 26m 37s
Apparent Declination
-39° 45' 33"
Sunlit
Object is in daylight
Visualization observer readout
Local Sidereal Time
15:30:00
Azimuth
76.642° E
Elevation
-89.334°
Doppler factor
1
Orbital elements
Apogee altitude
641.258 km
Perigee altitude
639.172 km
Semi-major axis
7,018.352 km
Eccentricity
0.00015
Inclination
97.9429°
RAAN
237.1293°
Arg. of periapsis
117.7983°
True anomaly
Unknown
Mean anomaly
242.3377°
Eccentric anomaly
Unknown
Mean motion
3.69139 °/min
Orbital period
97.52 mins
BSTAR
0.00018516
Loading maneuver chart data...
Loading SW <> Apogee altitude chart data...
Loading historical data...
Loading historical data...
Loading historical data...
Loading historical data...
Loading historical data...
Loading historical data...
Loading historical data...

KINEIS-2E Visibility forecast

Observer location: undefined°, undefined°

Span
Click to sort rows by Start time (UTC) header in descending order
Start Az.
Max El. time (UTC)
Max El. Az.
Max El.
End time (UTC)
End Az.
5 mins2025-07-03 04:30:46.248Z223.756° SW2025-07-03 04:32:46.248Z256.269° W20.588°2025-07-03 04:35:46.248Z308.203° NW
6 mins2025-07-03 16:21:46.248Z20.726° NNE2025-07-03 16:23:46.248Z55.667° ENE42.875°2025-07-03 16:27:46.248Z186.566° SSW
7 mins2025-07-04 03:17:46.248Z148.197° SSE2025-07-04 03:20:46.248Z83.621° E40.088°2025-07-04 03:24:46.248Z357.149° N
|